KOREASAT 5A (42984 NORAD) Tracking and Keplerian Element Data

This shows tracking and keplerian element data for the satellite.

Feedback or suggestion? Click here.




ElementValue
Catalog42984
NameKOREASAT 5A
Epoch Orbit2653
Epoch Day34.7060759
Epoch Year2025
RAAN288.1771
Inclination0.0371
Eccentricity0.0001075
Argument of Perigee19.8441
Mean Anonmoly193.4061
Mean Motion1.00272009
Decay Rate-3.54E-06
L11 42984U 17067A 25034.70607590 -.00000354 00000+0 00000+0 0 9997
L22 42984 0.0371 288.1771 0001075 19.8441 193.4061 1.00272009 26535



Live tracking and technical data element details for KOREASAT 5A (NORAD 42984). KOREASAT 5A can be tracked NOW for your location showing map with azimuth and elevation plus other details from your city location.







IsCatalogInMostPopularTable: catalog: 42984, numindb: 577
Update: records affected: 1



GetName: 42984 KOREASAT 5A

Hit Count: updated at: Thu, 15 May 2025 18:29:32 GMT